Wind_Speed
21 20 19 18 18 16 15 13 11 9 8 7 7 9 11 16 20 25 30 35 36 37 38 38 37 38 37 37 37 37 37 37 37 37 36 35 34 33 32 31 30 31 31
22 21 20 19 19 18 16 15 13 12 10 8 7 7 8 10 14 19 24 29 32 34 36 37 37 37 38 38 38 37 37 37 37 37 36 36 35 35 34 33 33 32 31
22 22 22 21 20 19 18 16 15 13 12 10 8 7 7 7 11 15 19 22 26 30 32 33 34 34 36 38 39 38 37 37 37 37 36 36 35 34 34 33 32 32 30
23 23 22 22 21 20 19 17 16 15 14 12 10 8 7 7 8 12 15 18 21 25 27 29 30 31 32 33 35 37 37 37 36 36 36 35 34 33 33 32 31 30 29
23 23 22 22 21 20 19 18 17 16 15 14 12 10 9 8 9 10 13 16 19 22 24 25 27 29 29 29 30 32 34 35 33 33 33 32 32 31 30 30 28 28 28
24 23 23 22 21 21 20 19 19 18 17 15 14 12 11 9 10 11 12 14 16 19 21 23 24 25 26 27 27 28 29 29 30 30 30 30 30 30 29 29 28 29 28
25 25 24 23 23 22 21 20 20 20 19 17 16 14 13 11 10 11 12 13 15 17 18 20 22 22 23 24 25 25 25 25 26 27 27 27 28 29 29 29 28 28 27
26 26 26 25 24 23 22 21 21 21 20 19 18 16 14 13 11 11 11 12 14 16 17 18 19 20 21 21 21 22 22 23 24 25 25 26 26 26 26 26 27 27 26
27 28 28 27 26 25 24 23 22 22 22 21 20 18 17 15 12 10 10 10 13 15 16 17 19 19 19 19 20 20 21 21 22 22 22 23 24 25 25 26 26 26 26
26 27 28 28 27 26 26 24 24 24 24 23 22 21 19 17 14 11 9 8 10 12 14 16 17 18 18 18 18 19 19 19 20 20 21 22 22 23 24 25 25 25 24
24 26 27 28 28 28 27 26 25 25 25 24 24 23 21 18 16 13 9 5 6 8 11 13 15 16 16 16 16 17 18 18 18 18 19 20 20 21 21 22 23 23 22
23 24 26 27 27 28 28 27 26 25 26 25 25 24 23 20 17 14 9 4 1 5 8 12 13 14 15 16 15 16 15 16 16 17 17 18 17 18 18 19 20 20 20
21 22 24 25 26 27 27 27 26 26 26 26 26 25 24 22 19 16 13 9 7 7 9 11 13 14 15 15 15 15 15 15 15 16 16 17 16 17 18 18 18 18 17
19 20 21 22 24 25 26 26 26 25 26 26 26 25 25 24 21 18 16 13 11 10 12 13 14 15 16 16 16 16 15 15 14 15 15 16 16 16 17 16 16 16 16
17 18 19 20 21 22 23 24 25 25 25 25 26 25 25 24 23 20 17 15 13 12 12 13 15 16 16 16 15 15 14 13 13 13 15 15 15 15 15 15 15 15 15
16 16 17 18 18 19 20 22 23 23 23 23 24 25 24 24 22 21 18 16 15 14 14 15 15 15 15 15 14 15 14 14 13 13 14 14 14 13 13 13 13 13 13
15 15 16 16 16 17 17 18 19 20 21 21 22 22 23 23 22 21 19 17 16 16 15 15 15 16 16 15 15 14 14 13 13 13 13 13 12 12 12 12 12 12 12
15 15 15 15 15 15 15 15 16 17 18 18 19 19 20 20 20 20 18 17 17 16 16 16 16 15 15 15 14 13 13 13 13 12 12 12 12 12 12 12 12 11 11
16 16 15 14 14 13 13 13 13 13 14 15 16 16 17 17 17 17 17 16 15 15 14 14 14 14 14 13 13 12 12 12 12 12 11 11 11 11 11 11 11 11 11
18 17 16 15 15 14 13 12 12 11 11 11 12 12 13 13 14 14 14 14 13 13 13 12 12 12 12 11 11 11 11 11 11 11 11 11 11 10 10 10 11 10 10
21 20 18 17 16 15 14 13 12 11 10 9 8 8 9 9 9 10 10 11 11 10 10 10 10 10 10 10 10 10 10 10 11 11 11 10 10 10 10 10 9 9 8
26 24 21 20 18 17 16 14 13 12 11 9 8 6 5 5 5 5 6 7 7 7 8 8 8 8 9 9 9 9 9 9 10 10 10 10 10 9 9 8 8 7 7
30 28 26 24 22 20 19 17 16 15 13 12 10 9 7 5 3 2 2 2 3 4 4 5 6 6 6 7 7 8 8 8 8 8 8 8 8 8 8 8 8 8 8
34 32 30 28 26 24 22 21 19 18 17 15 14 12 11 9 8 6 4 3 2 2 3 3 4 5 5 6 6 7 7 8 8 8 8 8 8 8 8 8 9 9 10
38 36 34 33 31 29 27 24 23 21 20 19 17 16 15 14 12 11 10 9 7 6 6 6 6 6 7 7 8 8 8 9 9 9 9 10 10 10 10 11 11 12 12
41 40 38 37 35 33 31 29 27 25 23 22 21 20 18 17 16 15 14 13 13 12 11 10 10 9 9 10 10 10 11 11 11 11 12 12 12 13 13 14 14 15 16
Wind_Direction
14 14 13 12 11 8 5 3 2 355 339 316 293 271 254 239 231 229 228 227 227 226 228 229 230 231 231 230 228 229 229 230 231 231 231 232 233 235 236 238 244 249 253
17 17 14 12 11 11 10 10 5 1 354 343 321 299 274 250 234 230 227 227 226 225 226 227 228 230 231 229 229 229 230 231 231 232 234 234 234 236 238 242 245 249 252
19 19 17 16 15 14 13 12 10 6 359 351 339 322 300 275 245 234 232 230 227 225 226 227 229 230 231 230 230 229 230 231 231 232 234 234 234 236 239 241 244 248 250
18 17 17 16 15 14 13 13 10 7 2 356 346 333 313 288 265 249 241 236 231 230 230 230 230 230 230 230 230 230 231 232 233 233 233 234 235 237 239 241 244 247 249
17 17 16 15 15 15 14 13 9 5 2 357 349 336 317 297 279 263 250 240 234 233 232 231 231 230 230 229 230 231 233 233 233 233 232 234 235 235 237 240 243 246 249
17 17 16 16 15 14 14 12 9 6 2 357 350 341 327 308 288 271 260 248 239 237 236 234 233 230 228 226 228 228 230 230 231 232 232 233 234 236 239 241 243 246 248
19 18 18 18 16 15 13 11 9 7 3 359 352 345 334 320 303 286 272 255 246 242 239 234 232 231 229 229 229 228 228 229 230 230 231 232 234 236 238 239 241 243 245
20 20 19 18 18 17 14 12 10 8 6 3 358 352 344 331 316 298 280 261 249 243 239 234 229 228 227 227 228 228 228 229 230 230 230 231 233 234 236 237 237 239 240
21 21 21 20 19 17 16 14 12 11 9 7 3 360 355 347 334 315 293 269 250 241 235 230 226 222 223 223 223 223 224 225 225 227 228 228 228 229 232 233 234 236 239
18 19 20 20 20 19 17 16 15 13 12 10 8 4 360 354 345 331 310 279 253 238 230 223 219 217 216 215 216 217 219 221 221 221 222 220 221 225 227 228 229 232 233
16 18 18 19 19 19 18 18 17 15 14 14 12 10 7 3 358 350 335 301 252 229 217 209 207 206 205 206 208 209 211 211 211 212 213 212 214 218 220 220 222 226 226
12 14 16 17 17 18 18 19 19 18 18 17 16 16 15 14 12 11 11 13 180 185 187 190 190 190 191 193 194 195 196 197 199 200 202 204 205 207 209 212 214 215 215
6 9 12 13 15 16 18 19 20 21 21 21 21 21 22 23 26 29 37 57 92 127 149 165 171 172 174 175 177 177 179 181 184 188 191 194 195 197 199 200 201 204 207
358 2 5 8 11 13 16 18 20 22 24 24 25 26 28 31 35 41 50 65 82 101 122 139 149 157 158 158 161 162 163 169 175 178 180 181 182 186 188 190 191 194 197
348 352 357 2 6 10 13 16 19 22 24 26 28 30 32 36 40 47 55 65 77 91 109 124 136 144 148 150 152 154 155 158 162 168 171 173 176 179 181 181 183 186 190
337 342 347 353 358 3 8 13 18 21 24 26 29 32 35 38 43 48 54 63 73 86 102 118 128 136 140 144 147 150 151 153 156 159 163 167 170 172 175 178 181 182 185
327 331 336 343 349 354 0 7 13 18 22 26 29 33 37 41 46 51 57 64 75 87 97 108 116 126 134 138 141 145 146 149 152 155 159 163 166 170 171 174 177 177 181
316 320 324 329 336 343 350 358 6 13 19 24 28 32 38 42 47 53 59 66 76 88 97 105 113 120 129 135 138 141 144 147 151 152 154 158 160 163 166 167 171 174 178
304 307 310 314 320 328 335 343 352 2 11 19 25 31 37 42 48 54 60 66 74 85 96 104 112 118 125 131 135 139 142 146 150 154 155 158 161 164 166 168 170 173 176
291 294 298 300 304 310 317 325 333 343 355 6 16 25 33 41 48 55 61 68 75 82 92 102 110 118 124 129 133 137 140 145 148 151 155 157 159 162 164 166 169 172 177
280 282 285 288 291 294 299 305 311 320 329 341 355 9 22 34 44 53 62 70 77 84 92 100 109 118 125 130 135 137 140 145 149 153 157 160 162 165 167 171 174 181 189
274 274 275 276 279 281 283 287 292 297 303 309 317 330 348 8 28 45 58 71 82 92 99 106 113 122 130 137 143 147 150 154 157 159 162 165 168 173 178 184 191 200 208
270 270 269 269 269 271 272 274 276 279 283 286 289 291 294 303 317 340 27 66 92 108 120 127 132 137 143 148 154 158 162 166 169 174 178 183 189 196 204 211 217 224 230
267 266 266 265 265 264 264 265 266 268 269 271 272 273 272 271 270 270 267 257 237 206 189 183 181 181 183 185 186 189 192 195 200 205 210 215 219 223 228 233 238 242 247
264 263 262 262 262 261 260 260 260 261 262 263 264 263 263 262 261 259 256 254 250 245 239 233 227 223 221 220 221 222 224 226 227 229 232 235 237 240 244 247 250 254 258
261 261 260 259 259 258 258 257 256 256 256 257 258 259 258 258 257 257 255 254 253 251 249 246 243 241 239 237 236 236 237 239 241 243 246 249 251 253 256 258 261 264 266
Height
5783 5778 5774 5770 5766 5761 5758 5754 5751 5748 5746 5744 5743 5742 5741 5742 5744 5746 5749 5753 5757 5762 5767 5772 5777 5782 5786 5791 5795 5800 5804 5809 5813 5818 5822 5825 5829 5833 5836 5838 5840 5842 5844
5784 5779 5775 5771 5766 5762 5758 5754 5751 5748 5746 5744 5742 5740 5739 5739 5740 5742 5744 5747 5751 5755 5759 5764 5769 5773 5778 5782 5787 5791 5795 5800 5805 5809 5813 5817 5821 5825 5828 5831 5833 5835 5836
5786 5781 5776 5772 5767 5763 5759 5755 5752 5749 5746 5743 5741 5739 5738 5737 5737 5738 5740 5742 5745 5749 5752 5756 5761 5765 5769 5774 5778 5783 5787 5791 5796 5800 5805 5809 5813 5816 5820 5823 5825 5827 5829
5788 5783 5778 5773 5769 5764 5760 5756 5753 5749 5746 5743 5740 5738 5737 5736 5735 5735 5736 5738 5741 5743 5746 5750 5753 5757 5761 5765 5770 5774 5779 5783 5787 5792 5797 5800 5804 5808 5812 5815 5818 5820 5822
5790 5785 5780 5775 5770 5766 5761 5757 5753 5750 5746 5743 5740 5737 5735 5734 5733 5733 5733 5734 5736 5738 5740 5743 5746 5750 5754 5757 5762 5766 5771 5775 5780 5784 5788 5792 5796 5800 5804 5807 5810 5813 5815
5792 5786 5781 5777 5772 5767 5763 5758 5754 5750 5746 5742 5739 5736 5733 5731 5730 5729 5729 5729 5731 5733 5735 5737 5740 5743 5747 5751 5755 5759 5763 5767 5772 5776 5780 5785 5789 5793 5797 5800 5803 5806 5808
5793 5788 5783 5778 5773 5768 5764 5759 5755 5750 5745 5741 5737 5733 5730 5728 5726 5725 5724 5724 5725 5727 5728 5731 5734 5737 5741 5745 5749 5753 5757 5760 5765 5769 5773 5777 5782 5786 5789 5792 5795 5798 5801
5796 5790 5785 5780 5775 5770 5765 5760 5755 5750 5745 5740 5736 5732 5728 5725 5723 5721 5720 5719 5720 5721 5723 5726 5729 5732 5736 5739 5743 5747 5751 5755 5759 5763 5767 5771 5775 5778 5782 5785 5788 5791 5794
5798 5793 5787 5782 5777 5771 5766 5761 5756 5751 5746 5741 5736 5731 5727 5723 5719 5717 5715 5715 5715 5716 5718 5721 5724 5727 5731 5735 5738 5742 5746 5750 5753 5757 5761 5765 5768 5772 5776 5779 5782 5785 5788
5800 5795 5790 5784 5779 5773 5768 5763 5758 5752 5747 5742 5736 5731 5726 5721 5717 5713 5711 5710 5710 5711 5713 5716 5719 5723 5727 5730 5734 5738 5742 5745 5749 5752 5756 5759 5763 5767 5770 5774 5777 5780 5783
5803 5798 5792 5787 5781 5776 5770 5765 5759 5754 5748 5743 5737 5731 5726 5720 5715 5711 5708 5706 5706 5707 5709 5712 5715 5719 5723 5727 5731 5734 5738 5741 5745 5748 5752 5755 5759 5762 5766 5769 5772 5775 5778
5804 5800 5795 5790 5784 5779 5773 5767 5762 5756 5751 5745 5739 5733 5727 5721 5716 5711 5707 5704 5704 5705 5707 5710 5713 5717 5721 5725 5729 5732 5735 5738 5742 5745 5749 5752 5756 5759 5762 5765 5768 5771 5774
5806 5801 5797 5792 5787 5782 5776 5770 5765 5759 5753 5748 5742 5736 5730 5724 5718 5713 5709 5707 5706 5706 5708 5710 5713 5717 5721 5724 5728 5731 5734 5738 5741 5744 5747 5750 5754 5757 5760 5763 5766 5769 5772
5807 5803 5799 5794 5789 5784 5779 5774 5768 5762 5757 5751 5745 5740 5734 5728 5723 5718 5714 5712 5711 5711 5711 5713 5715 5718 5722 5726 5729 5732 5735 5738 5741 5744 5747 5750 5753 5756 5759 5762 5765 5768 5771
5808 5804 5800 5796 5791 5787 5782 5777 5771 5766 5761 5755 5750 5744 5739 5734 5729 5724 5721 5718 5717 5716 5716 5717 5719 5722 5725 5728 5731 5734 5737 5740 5742 5745 5748 5751 5753 5756 5759 5761 5764 5767 5770
5807 5804 5800 5797 5793 5789 5784 5780 5775 5770 5764 5759 5754 5749 5744 5739 5735 5731 5727 5724 5723 5722 5722 5723 5724 5726 5729 5732 5734 5737 5739 5742 5744 5746 5749 5752 5754 5757 5759 5762 5764 5766 5769
5806 5803 5800 5797 5793 5790 5786 5782 5777 5773 5768 5763 5759 5754 5750 5745 5741 5737 5734 5731 5729 5728 5728 5728 5729 5731 5733 5735 5737 5740 5742 5744 5746 5748 5750 5753 5755 5757 5760 5762 5764 5766 5768
5804 5802 5799 5796 5793 5790 5786 5783 5779 5776 5772 5767 5763 5759 5755 5751 5747 5744 5741 5739 5737 5735 5735 5735 5735 5736 5738 5739 5741 5742 5744 5746 5748 5750 5752 5754 5756 5758 5761 5763 5765 5766 5768
5801 5799 5797 5794 5791 5789 5786 5783 5780 5777 5774 5770 5767 5763 5759 5756 5753 5750 5747 5745 5743 5742 5741 5741 5741 5742 5742 5743 5745 5746 5747 5749 5750 5752 5754 5756 5757 5759 5761 5763 5765 5767 5769
5797 5795 5793 5791 5789 5787 5785 5782 5780 5777 5775 5772 5769 5766 5763 5760 5757 5755 5753 5750 5749 5748 5747 5746 5746 5746 5747 5747 5748 5749 5750 5751 5753 5754 5756 5757 5759 5760 5762 5764 5765 5767 5769
5791 5790 5789 5787 5785 5784 5782 5780 5778 5776 5774 5772 5770 5768 5765 5763 5760 5758 5756 5755 5753 5752 5751 5750 5750 5750 5750 5751 5751 5752 5753 5754 5755 5756 5757 5759 5760 5761 5763 5764 5766 5767 5768
5785 5784 5783 5781 5780 5779 5778 5777 5775 5774 5772 5771 5769 5768 5766 5764 5762 5760 5759 5757 5756 5755 5754 5754 5753 5753 5753 5753 5754 5754 5755 5756 5757 5758 5759 5760 5761 5762 5763 5764 5765 5766 5767
5777 5776 5776 5775 5774 5773 5772 5771 5771 5770 5769 5768 5767 5766 5765 5763 5762 5761 5760 5758 5757 5757 5756 5756 5755 5755 5755 5755 5756 5756 5757 5757 5758 5759 5760 5760 5761 5762 5763 5764 5764 5765 5766
5768 5768 5767 5767 5766 5766 5766 5765 5765 5764 5764 5763 5763 5762 5762 5761 5760 5759 5759 5758 5757 5756 5756 5756 5756 5756 5756 5756 5756 5757 5757 5758 5758 5759 5759 5760 5761 5761 5762 5762 5763 5763 5763
5757 5757 5758 5758 5758 5758 5757 5757 5757 5757 5757 5757 5757 5757 5757 5756 5756 5756 5756 5755 5755 5755 5755 5754 5754 5755 5755 5755 5755 5756 5756 5756 5757 5757 5758 5758 5759 5759 5759 5760 5760 5760 5760
5745 5746 5746 5747 5747 5748 5748 5748 5749 5749 5749 5749 5750 5750 5750 5750 5751 5751 5751 5751 5751 5751 5751 5751 5752 5752 5752 5752 5753 5753 5753 5754 5754 5755 5755 5755 5756 5756 5756 5756 5756 5756 5756